TimeEST,TemperatureF,Dew PointF,Humidity,Sea Level PressureIn,VisibilityMPH,Wind Direction,Wind SpeedMPH,Gust SpeedMPH,PrecipitationIn,Events,Conditions,WindDirDegrees,DateUTC
12:53 AM,27.0,21.9,81,30.25,10.0,Calm,Calm,-,N/A,,Clear,0,2012-11-27 05:53:00
1:53 AM,27.0,21.9,81,30.27,10.0,Calm,Calm,-,N/A,,Clear,0,2012-11-27 06:53:00
2:53 AM,26.1,21.9,84,30.29,10.0,Calm,Calm,-,N/A,,Clear,0,2012-11-27 07:53:00
3:53 AM,27.0,23.0,85,30.28,10.0,Calm,Calm,-,N/A,,Scattered Clouds,0,2012-11-27 08:53:00
4:53 AM,28.9,25.0,85,30.28,10.0,Calm,Calm,-,N/A,,Overcast,0,2012-11-27 09:53:00
5:53 AM,30.0,25.0,82,30.28,10.0,Calm,Calm,-,N/A,,Overcast,0,2012-11-27 10:53:00
6:53 AM,30.0,26.1,85,30.30,9.0,Calm,Calm,-,N/A,,Overcast,0,2012-11-27 11:53:00
7:53 AM,33.1,28.0,82,30.31,10.0,Calm,Calm,-,N/A,,Overcast,0,2012-11-27 12:53:00
8:53 AM,36.0,30.0,79,30.32,10.0,Calm,Calm,-,N/A,,Overcast,0,2012-11-27 13:53:00
9:53 AM,39.0,28.9,67,30.33,10.0,Calm,Calm,-,0.00,Rain,Light Rain,0,2012-11-27 14:53:00
10:31 AM,37.4,30.2,75,30.32,8.0,Calm,Calm,-,0.00,Rain,Light Rain,0,2012-11-27 15:31:00
10:53 AM,37.0,32.0,82,30.32,7.0,Calm,Calm,-,0.00,Rain,Light Rain,0,2012-11-27 15:53:00
11:53 AM,37.0,34.0,89,30.30,5.0,Calm,Calm,-,0.02,Rain,Light Rain,0,2012-11-27 16:53:00
12:02 PM,37.4,33.8,87,30.30,4.0,NNE,3.5,-,0.01,Rain,Light Rain,30,2012-11-27 17:02:00
12:53 PM,36.0,33.1,89,30.29,6.0,NE,4.6,-,0.02,Rain,Light Rain,50,2012-11-27 17:53:00
1:30 PM,35.6,33.8,93,30.27,2.0,ENE,5.8,-,0.02,Snow,Light Snow,60,2012-11-27 18:30:00
1:53 PM,35.1,33.1,92,30.27,2.0,ENE,4.6,-,0.03,Snow,Light Snow,60,2012-11-27 18:53:00
2:04 PM,35.6,33.8,93,30.26,3.0,NE,4.6,-,0.00,Snow,Light Snow,50,2012-11-27 19:04:00
2:23 PM,33.8,33.8,100,30.25,1.8,NE,4.6,-,0.00,Snow,Light Snow,50,2012-11-27 19:23:00
2:53 PM,33.8,32.0,93,30.26,1.0,Calm,Calm,-,N/A,Snow,Light Snow,0,2012-11-27 19:53:00
3:11 PM,33.8,32.0,93,30.26,0.5,Calm,Calm,-,0.01,Fog-Snow,Light Snow,0,2012-11-27 20:11:00
3:53 PM,33.1,32.0,96,30.26,0.5,Calm,Calm,-,0.03,Fog-Snow,Snow,0,2012-11-27 20:53:00
4:26 PM,33.8,32.0,93,30.25,0.8,NNE,4.6,-,0.02,Snow,Light Snow,30,2012-11-27 21:26:00
4:53 PM,33.1,32.0,96,30.25,1.0,NNE,5.8,-,0.03,Snow,Light Snow,30,2012-11-27 21:53:00
5:53 PM,33.1,32.0,96,30.25,1.5,NNE,4.6,-,0.01,Snow,Light Snow,20,2012-11-27 22:53:00
6:53 PM,33.1,32.0,96,30.24,4.0,NNE,3.5,-,0.01,Rain,Light Rain,20,2012-11-27 23:53:00
7:53 PM,34.0,32.0,92,30.23,4.0,North,4.6,-,0.00,Rain,Light Rain,360,2012-11-28 00:53:00
8:53 PM,34.0,32.0,92,30.22,4.0,North,4.6,-,0.02,Rain,Light Rain,350,2012-11-28 01:53:00
9:22 PM,33.8,33.8,100,30.21,5.0,North,4.6,-,0.00,Rain,Light Rain,360,2012-11-28 02:22:00
9:53 PM,34.0,33.1,96,30.21,5.0,North,4.6,-,0.01,Rain,Light Rain,350,2012-11-28 02:53:00
10:40 PM,33.8,32.0,93,30.21,2.0,North,3.5,-,0.01,Snow,Light Snow,350,2012-11-28 03:40:00
10:53 PM,34.0,32.0,92,30.20,2.5,North,3.5,-,0.02,Snow,Light Snow,350,2012-11-28 03:53:00
11:01 PM,33.8,32.0,93,30.20,3.0,North,5.8,-,0.00,Snow,Light Snow,360,2012-11-28 04:01:00
11:53 PM,34.0,32.0,92,30.18,3.0,North,4.6,-,0.01,Snow,Light Snow,360,2012-11-28 04:53:00